Regional Weather Roundup
Issued by NWS State College, PA

Home | Current Version | Previous Version | Graphics & Text | Print | Product List | Glossary On
Versions: 1 2 3 4 5 6 7 8 9 10 11 12 13 14 15 16 17 18 19 20 21 22 23 24 25 26 27 28 29 30 31 32 33 34 35 36 37 38 39 40 41 42 43 44 45 46 47 48 49 50
000
ASUS41 KCTP 200103
RWRCTP

REGIONAL WEATHER ROUNDUP
NATIONAL WEATHER SERVICE STATE COLLEGE PA
900 PM EDT FRI SEP 19 2014

Note: "fair" indicates few or no clouds below 12,000 feet with no
significant weather and/or obstructions to visibility.

* = STATION THAT DOES NOT REPORT PRECIPITATION /E.G. RAIN...SNOW...ETC/
    THUNDER OR FOG.

PAZ002>004-007>009-013>016-020>023-029>032-200200-
WESTERN PENNSYLVANIA

CITY           SKY/WX    TMP DP  RH WIND       PRES   REMARKS
ERIE           CLEAR     58  51  78 CALM      30.13F
MEADVILLE      CLEAR     61  52  72 CALM      30.14F
FRANKLIN*      CLEAR     61  52  72 SE10      30.17F
NEW CASTLE     NOT AVBL
BEAVER COUNTY  PTCLDY    64  55  72 SE9       30.15S
BUTLER*        PTCLDY    63  52  67 SE7       30.19R
PITTSBURGH INT MOCLDY    67  55  65 SE12      30.15R
PITTSBURGH     CLEAR     64  52  64 SE10      30.17R
INDIANA*       PTCLDY    63  52  67 S12G20    30.23F
LATROBE        PTCLDY    64  55  72 SE9G20    30.19S
WASHINGTON CO* PTCLDY    63  55  77 SE8       30.17R
$$

PAZ004>006-010>012-017>019-024>028-033>037-041-042-045-046-049>053-200200-
CENTRAL PENNSYLVANIA

CITY           SKY/WX    TMP DP  RH WIND       PRES   REMARKS
BRADFORD       CLEAR     56  49  77 SE7       30.21F
DUBOIS         PTCLDY    58  51  78 SE9       30.20F
CLEARFIELD     CLOUDY    60  52  74 CALM      30.24S
JOHNSTOWN      PTCLDY    58  50  75 SE13G20   30.24F
ALTOONA        MOCLDY    62  53  72 CALM      30.27R
STATE COLLEGE  PTCLDY    61  52  72 CALM      30.26S
WILLIAMSPORT   PTCLDY    64  50  60 SE15G22   30.25S
SELINSGROVE    MOCLDY    63  52  67 SE8       30.28S
FT INDIANTOWN  CLOUDY    60  56  88 VRB1      30.31R
CAPITAL CITY   CLOUDY    65  54  67 SE12      30.30R
HARRISBURG     MOCLDY    64  55  72 SE7       30.30R
YORK           MOCLDY    62  55  77 SE6       30.30R
$$

PAZ038>040-043-044-047-048-054-055-060>062-067>071-200200-
EASTERN PENNSYLVANIA

CITY           SKY/WX    TMP DP  RH WIND       PRES   REMARKS
SCRANTON       PTCLDY    59  47  64 SE12G18   30.29S
MOUNT POCONO   CLEAR     50  46  86 SE8       30.34R
ALLENTOWN      CLEAR     60  49  66 SE8       30.34R
QUAKERTOWN*    PTCLDY    57  50  77 SE6       30.36R
READING        MOCLDY    62  51  67 SE12      30.32R
LANCASTER      MOCLDY    60  53  77 E8        30.32R
COATESVILLE    CLEAR     57  54  88 E5        30.35R
POTTSTOWN      CLEAR     57  51  80 VRB3      30.36R
BLUE BELL      CLEAR     57  54  88 E5        30.35R
DOYLESTOWN     CLEAR     55  51  86 CALM      30.34S
WILLOW GROVE   NOT AVBL
NORTH PHILA    CLEAR     60  51  72 E8        30.37R
PHILADELPHIA   PTCLDY    61  54  77 E10       30.35R
$$



USA.gov is the U.S. government's official web portal to all federal, state and local government web resources and services.